[[{"header":{"parameterUnit":"m.s-1","parameterCategory":1,"la1":30.2991,"la2":30.254,"lo1":-89.0895,"lo2":-89.0444,"dy":0.0017,"dx":0.0017,"nx":28,"ny":28,"refTime":"2023-11-03T03:00:00:Z","depth":0,"parameterNumber":2,"parameterNumberName":"U-component_of_WINDS"},"data":[0,0,0,0,0,0,0,0,0,0,0,0,0,0,0,0,0,0,0,0,0,0,0,0,0,0,0,0,0,0,0,0,0,0,0,0,0,0,0,0,0,0,0,0,0,0,0,0,0,0,0,0,0,0,0,0,0,0,-3.4145,-3.4146,0,-3.4192,-3.4193,-3.4193,-3.4104,-3.4101,-3.4098,-3.4095,-3.4142,-3.4146,-3.415,0,0,0,0,0,0,0,0,0,0,0,0,0,-3.3977,-3.398,-3.4145,-3.4146,-3.4147,-3.4192,-3.4193,-3.4194,-3.4105,-3.4101,-3.4097,-3.4094,-3.4141,-3.4145,-3.415,0,0,0,0,0,0,0,0,0,0,0,0,0,-3.4039,-3.3981,-3.4145,-3.4108,-3.4105,-3.4192,-3.4193,-3.4194,-3.4105,-3.4101,-3.4097,-3.4092,-3.4139,-3.4145,-3.4151,-3.4277,0,0,-3.4169,-3.4172,0,0,0,0,0,0,0,0,-3.4036,-3.4046,-3.4113,-3.411,-3.4107,-3.4138,-3.415,-3.4222,-3.4107,-3.4105,-3.4095,-3.409,-3.4144,-3.4149,-3.4168,-3.4279,-3.4281,-3.417,-3.4173,-3.4176,-3.4178,0,0,0,0,0,0,0,-3.4032,-3.4043,-3.4164,-3.4114,-3.4111,-3.4088,-3.4092,-3.4164,-3.4149,-3.4105,-3.4099,-3.4105,-3.4142,-3.4162,-3.4168,-3.4281,-3.417,-3.4175,-3.4179,-3.4181,-3.4497,-3.4502,0,0,0,0,0,0,-3.4032,-3.404,-3.4162,-3.4165,-3.406,-3.4095,-3.4099,-3.4133,-3.4148,-3.4146,-3.4109,-3.4101,-3.4154,-3.4161,-3.417,-3.4317,-3.4176,-3.4182,-3.4185,-3.4492,-3.4498,-3.4503,0,0,0,0,0,0,-3.4029,-3.4044,-3.416,-3.4101,-3.4114,-3.4102,-3.4141,-3.4136,-3.4156,-3.4151,-3.4148,-3.4133,-3.4151,-3.4161,-3.4251,-3.4318,-3.4184,-3.419,-3.4487,-3.4494,-3.4501,-3.4614,0,0,0,0,0,0,-3.4025,-3.4043,-3.4092,-3.4103,-3.4118,-3.4242,-3.4145,-3.414,-3.4167,-3.4157,-3.4173,-3.4171,-3.4148,-3.4242,-3.4257,-3.4324,-3.4194,-3.4481,-3.449,-3.4498,-3.4605,-3.4625,-3.4642,0,0,0,0,0,-3.4019,-3.4121,-3.4094,-3.411,-3.4178,-3.4246,-3.4254,-3.4227,-3.4173,-3.4221,-3.4217,-3.417,-3.4308,-3.4252,-3.4268,-3.4337,-3.4476,-3.4487,-3.4498,-3.4596,-3.4621,-3.4641,0,0,0,0,0,0,-3.4118,-3.4122,-3.4092,-3.4202,-3.4224,-3.423,-3.429,-3.4253,-3.4291,-3.428,-3.4244,-3.4248,-3.4344,-3.435,-3.4287,-3.446,-3.4383,-3.4398,-3.4453,-3.4476,-3.4494,-3.449,-3.4199,0,0,0,0,0,-3.4152,-3.4208,-3.4208,-3.4305,-3.4318,-3.4302,-3.4331,-3.4308,-3.4329,-3.4338,-3.4341,-3.4363,-3.4411,-3.4444,-3.4488,-3.4605,-3.4607,-3.4661,-3.4679,-3.4694,-3.4707,-3.4769,-3.4793,-3.4539,-3.4539,-3.4539,0,0,-3.4224,-3.4233,-3.4271,-3.4325,-3.4339,-3.4397,-3.4311,-3.4375,-3.4418,-3.4348,-3.4432,-3.4436,-3.4458,-3.4562,-3.4607,-3.4569,-3.4778,-3.4708,-3.472,-3.4725,-3.4783,-3.4807,-3.4828,-3.4546,-3.4545,-3.4544,0,0,-3.4385,-3.4398,-3.4479,-3.4496,-3.4519,-3.4508,-3.4528,-3.454,-3.454,-3.4624,-3.4573,-3.4622,-3.4706,-3.4724,-3.4744,-3.4912,-3.487,-3.4927,-3.5024,-3.5085,-3.5105,-3.5122,-3.5181,-3.5203,-3.494,-3.494,-3.494,0,-3.4471,-3.4556,-3.4525,-3.4594,-3.4619,-3.4559,-3.4641,-3.4658,-3.4695,-3.4713,-3.467,-3.4774,-3.4785,-3.4892,-3.4933,-3.4951,-3.4972,-3.4925,-3.5104,-3.5122,-3.5137,-3.5194,-3.5216,-3.4947,-3.4946,-3.4945,-3.4945,0,-3.4661,-3.4721,-3.4784,-3.4821,-3.4853,-3.4928,-3.4908,-3.4945,-3.4919,-3.4913,-3.4999,-3.501,-3.5055,-3.5079,-3.5054,-3.5183,-3.5158,-3.511,-3.5032,-3.5169,-3.5221,-3.5242,-3.4957,-3.4954,-3.4952,-3.495,0,0,-3.4885,-3.4904,-3.4928,-3.4944,-3.4965,-3.5011,-3.5083,-3.5127,-3.5159,-3.5186,-3.5245,-3.5318,-3.5274,-3.5297,-3.5273,-3.5327,-3.5459,-3.5272,-3.5272,-3.5306,-3.56,-3.5636,-3.5661,-3.5431,-3.5435,-3.5438,-3.5598,0,-3.5043,-3.5168,-3.5142,-3.5264,-3.5319,-3.5263,-3.5325,-3.5345,-3.5341,-3.5386,-3.5381,-3.5433,-3.5371,-3.5385,-3.5435,-3.5432,-3.5517,-3.542,-3.5485,-3.5488,-3.5481,-3.5688,-3.5726,-3.5877,-3.5618,-3.5622,-3.5624,0,-3.5245,-3.5281,-3.5408,-3.5421,-3.5443,-3.55,-3.5538,-3.5583,-3.5604,-3.5597,-3.5623,-3.5589,-3.566,-3.5582,-3.5679,-3.5614,-3.5639,-3.5641,-3.5646,-3.5651,-3.5564,-3.5698,-3.5924,-3.5947,-3.5656,-3.5654,-3.5651,0,-3.5396,-3.5475,-3.5561,-3.5577,-3.5594,-3.5635,-3.5644,-3.566,-3.5689,-3.5723,-3.574,-3.5782,-3.5805,-3.5837,-3.5816,-3.5761,-3.5916,-3.5836,-3.5912,-3.5913,-3.5947,-3.5945,-3.618,-3.5964,-3.5964,-3.5963,-3.5963,0,-3.5575,-3.5656,-3.5629,-3.5682,-3.577,-3.574,-3.5827,-3.5829,-3.5845,-3.5897,-3.5851,-3.59,-3.5869,-3.5916,-3.59,-3.5982,-3.5993,-3.5989,-3.5984,-3.5993,-3.5994,-3.6009,-3.5998,-3.5969,-3.5968,-3.5967,-3.5966,0,-3.5758,-3.5743,-3.5834,-3.5843,-3.5847,-3.5911,-3.5918,-3.5967,-3.596,-3.6026,-3.604,-3.6028,-3.6081,-3.6063,-3.612,-3.6109,-3.6214,-3.6195,-3.6207,-3.6202,-3.6279,-3.6272,-3.6531,-3.6563,-3.6328,-3.633,-3.6332,0,-3.5874,-3.5934,-3.5949,-3.5981,-3.5993,-3.6045,-3.6074,-3.6046,-3.6078,-3.6107,-3.6153,-3.6202,-3.6239,-3.6327,-3.6323,-3.6366,-3.6348,-3.6436,-3.6354,-3.6362,-3.6349,-3.6345,-3.6351,-3.6452,-3.6455,-3.6457,-3.6459,0,-3.608,-3.607,-3.6114,-3.6156,-3.6191,-3.6222,-3.6249,-3.6278,-3.6252,-3.629,-3.6344,-3.6373,-3.6431,-3.6481,-3.652,-3.6528,-3.6489,-3.6485,-3.6504,-3.6514,-3.6519,-3.6517,-3.6251,-3.6479,-3.6477,-3.6475,-3.6474,-3.6473,-3.6233,-3.6284,-3.6302,-3.6352,-3.637,-3.6396,-3.6443,-3.6441,-3.6486,-3.6531,-3.6512,-3.6574,-3.6593,-3.6642,-3.6655,-3.6703,-3.6669,-3.6698,-3.6705,-3.6713,-3.6722,-3.6512,-3.671,-3.671,-3.6709,-3.6709,-3.6708,0,-3.6437,-3.6446,-3.6492,-3.6532,-3.6571,-3.6532,-3.6559,-3.6595,-3.665,-3.6672,-3.671,-3.6772,-3.6819,-3.6819,-3.6864,-3.6902,-3.6885,-3.6914,-3.6911,-3.6913,-3.675,-3.6729,-3.6927,-3.6927,-3.6927,-3.6927,-3.6927,-3.6927,-3.6548,-3.6632,-3.6624,-3.6716,-3.6724,-3.6785,-3.6804,-3.6828,-3.6844,-3.6916,-3.6955,-3.6955,-3.6968,-3.7012,-3.7054,-3.7053,-3.7071,-3.7107,-3.7099,-3.6947,-3.6925,-3.6904,-3.6884,-3.7111,-3.7111,-3.7258,-3.7259,-3.726]},{"header":{"parameterUnit":"m.s-1","parameterCategory":1,"la1":30.2991,"la2":30.254,"lo1":-89.0895,"lo2":-89.0444,"dy":0.0017,"dx":0.0017,"nx":28,"ny":28,"refTime":"2023-11-03T03:00:00:Z","depth":0,"parameterNumber":3,"parameterNumberName":"V-component_of_WINDS"},"data":[0,0,0,0,0,0,0,0,0,0,0,0,0,0,0,0,0,0,0,0,0,0,0,0,0,0,0,0,0,0,0,0,0,0,0,0,0,0,0,0,0,0,0,0,0,0,0,0,0,0,0,0,0,0,0,0,0,0,-1.8044,-1.8045,0,-1.8148,-1.815,-1.8151,-1.8174,-1.8173,-1.8172,-1.8172,-1.8272,-1.8275,-1.8279,0,0,0,0,0,0,0,0,0,0,0,0,0,-1.7856,-1.7859,-1.8044,-1.8045,-1.8046,-1.8148,-1.815,-1.8151,-1.8174,-1.8173,-1.8172,-1.8171,-1.8271,-1.8275,-1.8279,0,0,0,0,0,0,0,0,0,0,0,0,0,-1.7947,-1.786,-1.8043,-1.807,-1.8074,-1.8148,-1.815,-1.8151,-1.8174,-1.8173,-1.8172,-1.8171,-1.827,-1.8274,-1.8279,-1.8333,0,0,-1.8295,-1.8297,0,0,0,0,0,0,0,0,-1.7941,-1.7953,-1.8065,-1.8068,-1.8072,-1.8147,-1.812,-1.8212,-1.8174,-1.8136,-1.8172,-1.817,-1.8231,-1.8239,-1.8261,-1.8337,-1.8342,-1.8295,-1.8298,-1.83,-1.8302,0,0,0,0,0,0,0,-1.7935,-1.7949,-1.8085,-1.8066,-1.8071,-1.8074,-1.8086,-1.8138,-1.8188,-1.8139,-1.8141,-1.8153,-1.8233,-1.8256,-1.8263,-1.8343,-1.8295,-1.83,-1.8303,-1.8305,-1.8467,-1.8468,0,0,0,0,0,0,-1.7925,-1.7944,-1.8082,-1.8088,-1.8003,-1.8079,-1.8092,-1.8124,-1.8188,-1.8196,-1.8154,-1.8154,-1.8248,-1.8257,-1.8267,-1.8333,-1.83,-1.8305,-1.8308,-1.8466,-1.8467,-1.8468,0,0,0,0,0,0,-1.7921,-1.7937,-1.8077,-1.8017,-1.8035,-1.8083,-1.8119,-1.8127,-1.815,-1.8199,-1.8207,-1.8169,-1.8247,-1.826,-1.8316,-1.8337,-1.8307,-1.8312,-1.8464,-1.8466,-1.8468,-1.8466,0,0,0,0,0,0,-1.7916,-1.7936,-1.7958,-1.8017,-1.8038,-1.8127,-1.8121,-1.813,-1.816,-1.816,-1.8216,-1.8223,-1.8247,-1.8309,-1.8321,-1.8343,-1.8316,-1.8462,-1.8465,-1.8467,-1.8464,-1.8467,-1.847,0,0,0,0,0,-1.7909,-1.7952,-1.7959,-1.7976,-1.8067,-1.8128,-1.814,-1.8169,-1.8161,-1.8183,-1.8214,-1.8222,-1.8332,-1.8314,-1.8329,-1.8352,-1.8461,-1.8464,-1.8467,-1.8463,-1.8467,-1.847,0,0,0,0,0,0,-1.7893,-1.796,-1.7969,-1.8033,-1.8075,-1.8132,-1.8161,-1.8172,-1.8215,-1.8214,-1.8245,-1.8258,-1.8312,-1.8338,-1.8316,-1.8406,-1.8396,-1.8402,-1.8388,-1.8392,-1.8395,-1.8388,-1.832,0,0,0,0,0,-1.7897,-1.7943,-1.7999,-1.805,-1.8071,-1.8112,-1.814,-1.8158,-1.8202,-1.8219,-1.8255,-1.8295,-1.8338,-1.8367,-1.841,-1.8468,-1.8479,-1.8491,-1.8494,-1.8496,-1.8501,-1.8532,-1.8538,-1.8478,-1.8478,-1.8478,0,0,-1.7905,-1.7948,-1.7975,-1.8048,-1.8083,-1.8127,-1.8127,-1.8175,-1.8208,-1.8226,-1.8282,-1.8309,-1.8355,-1.8413,-1.844,-1.8436,-1.852,-1.85,-1.8501,-1.8505,-1.8536,-1.8541,-1.8546,-1.848,-1.848,-1.8479,0,0,-1.7944,-1.7982,-1.8029,-1.8064,-1.8117,-1.8144,-1.8155,-1.821,-1.823,-1.8287,-1.8301,-1.8339,-1.8414,-1.8447,-1.8473,-1.8523,-1.8531,-1.8536,-1.8551,-1.8581,-1.8586,-1.859,-1.8608,-1.8614,-1.854,-1.854,-1.854,0,-1.7948,-1.8019,-1.805,-1.8098,-1.8129,-1.8149,-1.8195,-1.8226,-1.829,-1.8309,-1.8304,-1.8399,-1.8432,-1.8496,-1.8509,-1.8529,-1.8541,-1.853,-1.8583,-1.8588,-1.8592,-1.8609,-1.8616,-1.854,-1.854,-1.854,-1.854,0,-1.802,-1.8069,-1.8099,-1.8163,-1.8197,-1.8243,-1.8279,-1.8309,-1.8324,-1.8351,-1.8407,-1.8447,-1.8499,-1.8515,-1.8529,-1.8582,-1.8578,-1.8578,-1.8568,-1.8598,-1.8614,-1.8621,-1.8541,-1.8541,-1.8541,-1.8541,0,0,-1.8053,-1.8133,-1.8144,-1.8172,-1.8232,-1.8269,-1.8314,-1.8367,-1.8391,-1.8433,-1.8472,-1.8534,-1.8535,-1.8564,-1.8582,-1.8609,-1.8645,-1.8606,-1.8607,-1.8611,-1.8703,-1.8703,-1.871,-1.865,-1.8652,-1.8653,-1.8699,0,-1.8099,-1.8185,-1.8214,-1.8285,-1.8329,-1.8348,-1.8388,-1.8427,-1.8453,-1.8492,-1.8519,-1.8563,-1.856,-1.8578,-1.8605,-1.8635,-1.8664,-1.8632,-1.8684,-1.8686,-1.8673,-1.8719,-1.8719,-1.8762,-1.8706,-1.8707,-1.8708,0,-1.8165,-1.8211,-1.8286,-1.8339,-1.8359,-1.8395,-1.8444,-1.8482,-1.8526,-1.8542,-1.8576,-1.8591,-1.8637,-1.8625,-1.8688,-1.8665,-1.8688,-1.8705,-1.8708,-1.8714,-1.8699,-1.8726,-1.8776,-1.8782,-1.8718,-1.8717,-1.8717,0,-1.8181,-1.8261,-1.8316,-1.834,-1.8404,-1.8428,-1.8455,-1.8498,-1.8527,-1.857,-1.8588,-1.8634,-1.8659,-1.8693,-1.872,-1.8709,-1.878,-1.877,-1.8794,-1.8793,-1.8809,-1.8807,-1.8863,-1.8823,-1.8823,-1.8823,-1.8823,0,-1.823,-1.8275,-1.8325,-1.8359,-1.8409,-1.844,-1.8488,-1.8516,-1.8554,-1.8592,-1.861,-1.8644,-1.8678,-1.8716,-1.8736,-1.8785,-1.8796,-1.8809,-1.8814,-1.8808,-1.8806,-1.8824,-1.8821,-1.8825,-1.8824,-1.8824,-1.8824,0,-1.8257,-1.8292,-1.8354,-1.8409,-1.8424,-1.8459,-1.8505,-1.8537,-1.8563,-1.861,-1.8623,-1.8663,-1.8709,-1.8739,-1.8797,-1.8811,-1.8863,-1.8867,-1.8849,-1.8852,-1.8874,-1.8872,-1.8943,-1.8953,-1.8906,-1.8907,-1.8907,0,-1.8286,-1.8322,-1.8381,-1.8409,-1.8437,-1.8481,-1.8512,-1.8543,-1.8573,-1.8625,-1.8651,-1.8698,-1.8738,-1.8809,-1.8842,-1.8886,-1.8891,-1.8913,-1.8898,-1.889,-1.8891,-1.8889,-1.8892,-1.8915,-1.8916,-1.8916,-1.8916,0,-1.8334,-1.835,-1.8394,-1.8444,-1.848,-1.852,-1.856,-1.8581,-1.8619,-1.8651,-1.87,-1.873,-1.879,-1.8836,-1.8883,-1.8908,-1.8918,-1.8921,-1.8929,-1.8923,-1.8911,-1.8918,-1.8856,-1.8919,-1.8919,-1.8919,-1.8919,-1.8918,-1.8363,-1.8396,-1.8443,-1.8491,-1.8525,-1.8561,-1.8595,-1.8625,-1.8667,-1.8719,-1.8734,-1.8784,-1.8825,-1.8889,-1.8915,-1.8953,-1.895,-1.8961,-1.8964,-1.8967,-1.8967,-1.8905,-1.8961,-1.8961,-1.8961,-1.8961,-1.8961,0,-1.8412,-1.8443,-1.8487,-1.8544,-1.8581,-1.8589,-1.8633,-1.8663,-1.8708,-1.8746,-1.8785,-1.884,-1.8884,-1.892,-1.8966,-1.8989,-1.8994,-1.8999,-1.8998,-1.9004,-1.8967,-1.8955,-1.8994,-1.8994,-1.8994,-1.8994,-1.8994,-1.8994,-1.8442,-1.8497,-1.8518,-1.8589,-1.8619,-1.867,-1.8694,-1.8727,-1.8758,-1.8819,-1.8857,-1.8881,-1.8918,-1.8966,-1.9006,-1.9015,-1.9031,-1.9035,-1.9045,-1.901,-1.9006,-1.9003,-1.8992,-1.9038,-1.9038,-1.9079,-1.9079,-1.9079]}]]